Weather History for Eugene, OR

Change the Weather History Date:

Saturday, February 16, 2013

  Actual Average Record
Temperature  
Mean Temperature 43 °F 43 °F  
Max Temperature 52 °F 51 °F 67 °F (1930)
Min Temperature 34 °F 35 °F 16 °F (1956)
Degree Days  
Heating Degree Days 22 22  
Month to date heating degree days 326 362  
Since 1 July heating degree days 2819 3072  
Cooling Degree Days 0 0  
Month to date cooling degree days 0 0  
Year to date cooling degree days 0 0  
Moisture  
Dew Point 39 °F    
Average Humidity 83    
Maximum Humidity 100    
Minimum Humidity 66    
Precipitation  
Precipitation T in 0.19 in 1.45 in (1970)
Month to date precipitation 0.58 3.13  
Year to date precipitation 1.93 10.00  
Snow  
Snow 0.00 in - - ()
Month to date snowfall 0.0  
Since 1 July snowfall 0.0  
Snow Depth 0.00 in    
Sea Level Pressure  
Sea Level Pressure 30.29 in    
Wind  
Wind Speed 6 mph (SSW)    
Max Wind Speed 15 mph    
Max Gust Speed 18 mph    
Visibility 8 miles    
Events Fog    
T = Trace of Precipitation, MM = Missing Value Source: NWS Daily Summary

Daily Weather History Graph

Daily Weather History Graph

Search for Another Location

Airport:

Trip Planner

Search our weather history database for the weather conditions in past years. The results will help you decide how hot, cold, wet, or windy it might be!

Date:

Astronomy

Feb. 16, 2013 Rise Set
Actual Time 7:10 AM PST 5:44 PM PST
Civil Twilight 6:40 AM PST 6:13 PM PST
Nautical Twilight 6:06 AM PST 6:47 PM PST
Astronomical Twilight 5:33 AM PST 7:21 PM PST
Moon 10:10 AM PST (2/16) 12:04 AM PST (2/16)
Length of Visible Light 11h 33m
Length of Day
10h 34m
Waxing Crescent, 40% of the Moon is Illuminated
Feb 16
Waxing Crescent
Feb 17
First Quarter
Feb 25
Full
Mar 4
Last Quarter
Mar 11
New

Hourly Weather History & Observations

Time (PST) Temp. Windchill Dew Point Humidity Pressure Visibility Wind Dir Wind Speed Gust Speed Precip Events Conditions
12:03 AM 37.4 °F 32.8 °F 37.4 °F 100% 30.26 in 0.5 mi SW 5.8 mph - N/A Fog Fog
12:15 AM 37.4 °F 33.8 °F 37.4 °F 100% 30.26 in 1.5 mi SW 4.6 mph - N/A   Overcast
12:20 AM 37.4 °F 32.8 °F 35.6 °F 93% 30.26 in 3.0 mi SSW 5.8 mph - N/A   Mostly Cloudy
12:33 AM 35.6 °F 32.8 °F 35.6 °F 100% 30.26 in 4.0 mi SSW 3.5 mph - N/A   Scattered Clouds
12:54 AM 36.0 °F 30.3 °F 34.0 °F 93% 30.27 in 2.0 mi SW 6.9 mph - N/A   Clear
1:04 AM 35.6 °F 29.2 °F 35.6 °F 100% 30.26 in 5.0 mi SSW 8.1 mph - N/A   Clear
1:26 AM 35.6 °F 29.9 °F 33.8 °F 93% 30.26 in 2.5 mi SSW 6.9 mph - N/A   Partly Cloudy
1:34 AM 35.6 °F 28.6 °F 33.8 °F 93% 30.26 in 4.0 mi SSW 9.2 mph - N/A   Clear
1:54 AM 34.0 °F 28.0 °F 34.0 °F 100% 30.27 in 8.0 mi SW 6.9 mph - N/A   Clear
2:49 AM 35.6 °F 28.0 °F 33.8 °F 93% 30.26 in 2.5 mi SSW 10.4 mph - N/A   Scattered Clouds
2:50 AM 35.1 °F 27.4 °F 34.0 °F 96% 30.27 in 2.5 mi SSW 10.4 mph - N/A   Scattered Clouds
3:01 AM 35.6 °F 28.0 °F 35.6 °F 100% 30.26 in 10.0 mi South 10.4 mph - N/A   Partly Cloudy
3:54 AM 36.0 °F 28.5 °F 35.1 °F 97% 30.26 in 10.0 mi South 10.4 mph - N/A   Scattered Clouds
4:07 AM 37.4 °F 31.4 °F 35.6 °F 93% 30.26 in 10.0 mi South 8.1 mph - N/A   Mostly Cloudy
4:54 AM 41.0 °F 35.8 °F 41.0 °F 100% 30.27 in 10.0 mi South 8.1 mph - N/A   Overcast
5:54 AM 43.0 °F 38.8 °F 41.0 °F 93% 30.28 in 10.0 mi South 6.9 mph - 0.00 in   Light Drizzle
6:48 AM 42.8 °F 38.6 °F 41.0 °F 93% 30.28 in 10.0 mi South 6.9 mph - 0.00 in   Overcast
6:54 AM 42.1 °F 37.7 °F 41.0 °F 96% 30.29 in 10.0 mi South 6.9 mph - 0.00 in   Overcast
7:51 AM 42.8 °F 40.1 °F 41.0 °F 93% 30.29 in 10.0 mi SE 4.6 mph - N/A   Overcast
7:54 AM 42.1 °F 39.2 °F 41.0 °F 96% 30.30 in 10.0 mi SE 4.6 mph - N/A   Overcast
8:54 AM 43.0 °F 39.5 °F 42.1 °F 97% 30.31 in 10.0 mi SSE 5.8 mph - N/A   Overcast
9:54 AM 44.1 °F 40.8 °F 42.1 °F 93% 30.32 in 10.0 mi SE 5.8 mph - N/A   Overcast
10:54 AM 46.9 °F - 44.1 °F 90% 30.33 in 10.0 mi ESE 4.6 mph - N/A   Overcast
11:22 AM 46.4 °F 42.9 °F 44.6 °F 93% 30.31 in 10.0 mi SE 6.9 mph - N/A   Overcast
11:54 AM 48.9 °F - 44.1 °F 83% 30.32 in 10.0 mi SSE 4.6 mph - N/A   Mostly Cloudy
12:54 PM 50.0 °F - 43.0 °F 77% 30.30 in 10.0 mi ESE 3.5 mph - N/A   Overcast
1:21 PM 48.2 °F - 42.8 °F 82% 30.29 in 10.0 mi West 10.4 mph - N/A   Overcast
1:54 PM 50.0 °F - 43.0 °F 77% 30.29 in 10.0 mi NNW 8.1 mph - N/A   Overcast
1:58 PM 50.0 °F - 44.6 °F 82% 30.28 in 10.0 mi North 6.9 mph - N/A   Overcast
2:54 PM 50.0 °F - 44.1 °F 80% 30.28 in 10.0 mi East 4.6 mph - N/A   Mostly Cloudy
3:54 PM 52.0 °F - 42.1 °F 69% 30.28 in 10.0 mi Calm Calm - N/A   Mostly Cloudy
4:54 PM 50.0 °F - 39.0 °F 66% 30.28 in 10.0 mi WNW 13.8 mph - N/A   Mostly Cloudy
5:54 PM 46.9 °F - 37.9 °F 71% 30.28 in 10.0 mi West 10.4 mph - N/A   Mostly Cloudy
6:54 PM 43.0 °F 37.7 °F 37.0 °F 80% 30.29 in 10.0 mi West 9.2 mph - N/A   Partly Cloudy
7:54 PM 39.0 °F 34.8 °F 36.0 °F 89% 30.30 in 10.0 mi WSW 5.8 mph - N/A   Partly Cloudy
8:54 PM 37.9 °F - 35.1 °F 89% 30.31 in 10.0 mi Calm Calm - N/A   Partly Cloudy
9:54 PM 41.0 °F - 37.9 °F 89% 30.31 in 10.0 mi Calm Calm - N/A   Mostly Cloudy
10:54 PM 39.0 °F 35.7 °F 37.0 °F 93% 30.32 in 10.0 mi NNW 4.6 mph - N/A   Mostly Cloudy
11:54 PM 37.0 °F - 35.1 °F 93% 30.31 in 10.0 mi Calm Calm - N/A   Clear